timestamp,surface_pressure_avg,surface_temp_avg,battery_voltage,lat,long
2024-04-16 00:09:00+00:00,258.6781,2.59,12.09,47.84626,-54.09684
2024-04-16 00:19:00+00:00,259.4564,2.5,12.09,47.84626,-54.09684
2024-04-16 00:29:00+00:00,255.9748,2.5,12.09,47.84626,-54.09684
2024-04-16 00:39:00+00:00,252.6898,2.5,12.09,47.84626,-54.09684
2024-04-16 00:49:00+00:00,256.2864,2.44,12.09,47.84626,-54.09684
2024-04-16 00:59:00+00:00,260.0914,2.45,12.09,47.84626,-54.09684
2024-04-16 01:09:00+00:00,256.1398,2.49,12.09,47.84626,-54.09684
2024-04-16 01:19:00+00:00,254.1914,2.5,12.09,47.84626,-54.09684
2024-04-16 01:29:00+00:00,261.2981,2.5,12.09,47.84626,-54.09684
2024-04-16 01:39:00+00:00,264.6214,2.5,12.09,47.84626,-54.09684
2024-04-16 01:49:00+00:00,266.6614,2.48,12.09,47.84626,-54.09684
2024-04-16 01:59:00+00:00,274.8281,2.4,12.09,47.84626,-54.09684
2024-04-16 02:09:00+00:00,284.8597,2.39,12.09,47.84626,-54.09684
2024-04-16 02:19:00+00:00,283.3064,2.39,12.09,47.84626,-54.09684
2024-04-16 02:29:00+00:00,282.328,2.4,12.09,47.84626,-54.09684
2024-04-16 02:39:00+00:00,289.4547,2.4,12.09,47.84626,-54.09684
2024-04-16 02:49:00+00:00,293.1564,2.4,12.09,47.84626,-54.09684
2024-04-16 02:59:00+00:00,294.5431,2.4,12.09,47.84626,-54.09684
2024-04-16 03:09:00+00:00,297.1164,2.4,12.09,47.84626,-54.09684
2024-04-16 03:19:00+00:00,305.2897,2.4,12.09,47.84626,-54.09684
2024-04-16 03:29:00+00:00,308.1113,2.4,12.09,47.84626,-54.09684
2024-04-16 03:39:00+00:00,306.7448,2.4,12.09,47.84626,-54.09684
2024-04-16 03:49:00+00:00,306.1597,2.37,12.09,47.84626,-54.09684
2024-04-16 03:59:00+00:00,311.7047,2.3,12.09,47.84626,-54.09684
2024-04-16 04:09:00+00:00,318.7013,2.3,12.09,47.84626,-54.09684
2024-04-16 04:19:00+00:00,318.7347,2.3,12.09,47.84626,-54.09684
2024-04-16 04:29:00+00:00,316.1797,2.3,12.09,47.84626,-54.09684
2024-04-16 04:39:00+00:00,311.9997,2.3,12.09,47.84626,-54.09684
2024-04-16 04:49:00+00:00,312.2546,2.3,12.09,47.84626,-54.09684
2024-04-16 04:59:00+00:00,319.063,2.3,12.09,47.84626,-54.09684
2024-04-16 05:09:00+00:00,324.068,2.3,12.09,47.84626,-54.09684
2024-04-16 05:19:00+00:00,325.8847,2.3,12.09,47.84626,-54.09684
2024-04-16 05:29:00+00:00,328.793,2.28,12.09,47.84626,-54.09684
2024-04-16 05:39:00+00:00,331.0797,2.25,12.09,47.84626,-54.09684
2024-04-16 05:49:00+00:00,325.243,2.3,12.09,47.84626,-54.09684
2024-04-16 05:59:00+00:00,315.7746,2.3,12.09,47.84626,-54.09684
2024-04-16 06:09:00+00:00,323.008,2.29,12.09,47.84626,-54.09684
2024-04-16 06:19:00+00:00,335.2047,2.23,12.09,47.84626,-54.09684
2024-04-16 06:29:00+00:00,333.4713,2.29,12.09,47.84626,-54.09684
2024-04-16 06:39:00+00:00,328.9463,2.3,12.09,47.84626,-54.09684
2024-04-16 06:49:00+00:00,330.4863,2.3,12.09,47.84626,-54.09684
2024-04-16 06:59:00+00:00,329.7812,2.3,12.09,47.84626,-54.09684
2024-04-16 07:09:00+00:00,319.2546,2.4,12.09,47.84626,-54.09684
2024-04-16 07:19:00+00:00,314.528,2.46,12.09,47.84626,-54.09684
2024-04-16 07:29:00+00:00,322.9913,2.43,12.09,47.84626,-54.09684
2024-04-16 07:39:00+00:00,313.1913,2.57,12.09,47.84626,-54.09684
2024-04-16 07:49:00+00:00,298.7365,2.5,12.09,47.84626,-54.09684
2024-04-16 07:59:00+00:00,300.673,2.6,12.09,47.84626,-54.09684
2024-04-16 08:09:00+00:00,305.5413,2.96,12.09,47.84626,-54.09684
2024-04-16 08:19:00+00:00,299.8596,3.0,12.09,47.84626,-54.09684
2024-04-16 08:29:00+00:00,292.8797,2.9,12.09,47.84626,-54.09684
2024-04-16 08:39:00+00:00,289.0447,2.88,12.09,47.84626,-54.09684
2024-04-16 08:49:00+00:00,283.6847,2.94,12.09,47.84626,-54.09684
2024-04-16 08:59:00+00:00,272.5681,3.05,12.09,47.84626,-54.09684
2024-04-16 09:09:00+00:00,268.8197,3.1,12.09,47.84626,-54.09684
2024-04-16 09:19:00+00:00,263.9531,3.1,12.09,47.84626,-54.09684
2024-04-16 09:29:00+00:00,259.0031,3.1,12.09,47.84626,-54.09684
2024-04-16 09:39:00+00:00,247.0164,3.1,12.09,47.84626,-54.09684
2024-04-16 09:49:00+00:00,239.9214,3.1,12.09,47.84626,-54.09684
2024-04-16 09:59:00+00:00,242.5781,3.04,12.09,47.84626,-54.09684
2024-04-16 10:09:00+00:00,244.2931,3.03,12.09,47.84626,-54.09684
2024-04-16 10:19:00+00:00,233.8498,3.1,12.09,47.84626,-54.09684
2024-04-16 10:29:00+00:00,232.6664,3.1,12.09,47.84626,-54.09684
2024-04-16 10:39:00+00:00,238.2764,3.1,12.09,47.84626,-54.09684
2024-04-16 10:49:00+00:00,237.9564,3.09,12.09,47.84626,-54.09684
2024-04-16 10:59:00+00:00,232.7381,3.0,12.09,47.84626,-54.09684
2024-04-16 11:09:00+00:00,235.3464,3.0,12.09,47.84626,-54.09684
2024-04-16 11:19:00+00:00,241.8681,3.03,12.09,47.84626,-54.09684
2024-04-16 11:29:00+00:00,239.2264,3.18,12.09,47.84626,-54.09684
2024-04-16 11:39:00+00:00,231.5565,3.2,12.09,47.84626,-54.09684
2024-04-16 11:49:00+00:00,232.6581,3.2,12.09,47.84626,-54.09684
2024-04-16 11:59:00+00:00,235.4365,2.93,12.09,47.84626,-54.09684
2024-04-16 12:09:00+00:00,235.0081,3.2,12.09,47.84626,-54.09684
2024-04-16 12:19:00+00:00,231.1764,3.1,12.01,47.84626,-54.09684
2024-04-16 12:29:00+00:00,231.7815,2.9,12.01,47.84626,-54.09684
2024-04-16 12:39:00+00:00,231.1964,3.0,12.01,47.84626,-54.09684
2024-04-16 12:49:00+00:00,232.1998,3.0,12.01,47.84626,-54.09684
2024-04-16 12:59:00+00:00,238.9497,2.9,12.01,47.84626,-54.09684
2024-04-16 13:09:00+00:00,242.2948,2.8,12.01,47.84626,-54.09684
2024-04-16 13:19:00+00:00,238.4481,2.7,12.01,47.84626,-54.09684
2024-04-16 13:29:00+00:00,233.8465,2.81,12.01,47.84626,-54.09684
2024-04-16 13:39:00+00:00,236.9214,2.83,12.01,47.84626,-54.09684
2024-04-16 13:49:00+00:00,233.8014,2.8,12.01,47.84626,-54.09684
2024-04-16 13:59:00+00:00,228.2531,2.7,12.01,47.84626,-54.09684
2024-04-16 14:09:00+00:00,232.2097,2.71,12.01,47.84626,-54.09684
2024-04-16 14:19:00+00:00,242.7097,2.8,12.01,47.84626,-54.09684
2024-04-16 14:29:00+00:00,242.1981,2.79,12.01,47.84626,-54.09684
2024-04-16 14:39:00+00:00,239.5031,2.79,12.01,47.84626,-54.09684
2024-04-16 14:49:00+00:00,246.023,2.75,12.01,47.84626,-54.09684
2024-04-16 14:59:00+00:00,250.9297,2.67,12.01,47.84626,-54.09684
2024-04-16 15:09:00+00:00,252.6231,2.6,12.01,47.84626,-54.09684
2024-04-16 15:19:00+00:00,258.3264,2.5,12.17,47.84626,-54.09684
2024-04-16 15:29:00+00:00,262.3431,2.5,12.17,47.84626,-54.09684
2024-04-16 15:39:00+00:00,262.1364,2.56,12.17,47.84626,-54.09684
2024-04-16 15:49:00+00:00,263.3815,2.59,12.17,47.84626,-54.09684
2024-04-16 15:59:00+00:00,262.293,2.6,12.17,47.84626,-54.09684
2024-04-16 16:09:00+00:00,264.0531,2.6,12.17,47.84626,-54.09684
2024-04-16 16:19:00+00:00,273.8664,2.68,12.25,47.84626,-54.09684
2024-04-16 16:29:00+00:00,281.863,2.6,12.25,47.84626,-54.09684
2024-04-16 16:39:00+00:00,277.2347,2.6,12.25,47.84626,-54.09684
2024-04-16 16:49:00+00:00,272.1714,2.6,12.25,47.84626,-54.09684
2024-04-16 16:59:00+00:00,280.178,2.5,12.25,47.84626,-54.09684
2024-04-16 17:09:00+00:00,282.9781,2.68,12.25,47.84626,-54.09684
2024-04-16 17:19:00+00:00,276.6197,2.6,12.25,47.84626,-54.09684
2024-04-16 17:29:00+00:00,271.7064,2.59,12.25,47.84626,-54.09684
2024-04-16 17:39:00+00:00,276.3064,2.66,12.25,47.84626,-54.09684
2024-04-16 17:49:00+00:00,281.8247,2.6,12.25,47.84626,-54.09684
2024-04-16 17:59:00+00:00,274.8548,2.7,12.25,47.84626,-54.09684
2024-04-16 18:09:00+00:00,272.7548,2.6,12.25,47.84626,-54.09684
2024-04-16 18:19:00+00:00,288.803,2.59,12.17,47.84626,-54.09684
2024-04-16 18:29:00+00:00,296.518,2.7,12.17,47.84626,-54.09684
2024-04-16 18:39:00+00:00,290.6247,2.6,12.17,47.84626,-54.09684
2024-04-16 18:49:00+00:00,287.3997,2.6,12.17,47.84626,-54.09684
2024-04-16 18:59:00+00:00,295.2847,2.58,12.17,47.84626,-54.09684
2024-04-16 19:09:00+00:00,292.308,2.75,12.17,47.84626,-54.09684
2024-04-16 19:19:00+00:00,288.2598,2.5,12.01,47.84626,-54.09684
2024-04-16 19:29:00+00:00,288.8047,2.57,12.01,47.84626,-54.09684
2024-04-16 19:39:00+00:00,286.6147,2.6,12.01,47.84626,-54.09684
2024-04-16 19:49:00+00:00,272.2431,2.68,12.01,47.84626,-54.09684
2024-04-16 19:59:00+00:00,268.4581,2.7,12.01,47.84626,-54.09684
2024-04-16 20:09:00+00:00,269.6714,2.87,12.01,47.84626,-54.09684
2024-04-16 20:19:00+00:00,265.0648,2.95,12.01,47.84626,-54.09684
2024-04-16 20:29:00+00:00,260.4681,2.7,12.01,47.84626,-54.09684
2024-04-16 20:39:00+00:00,266.9981,2.8,12.01,47.84626,-54.09684
2024-04-16 20:49:00+00:00,269.4998,2.96,12.01,47.84626,-54.09684
2024-04-16 20:59:00+00:00,257.8881,3.0,12.01,47.84626,-54.09684
2024-04-16 21:09:00+00:00,251.1548,2.91,12.01,47.84626,-54.09684
2024-04-16 21:19:00+00:00,257.9314,2.99,12.01,47.84626,-54.09684
2024-04-16 21:29:00+00:00,254.3364,2.97,12.01,47.84626,-54.09684
2024-04-16 21:39:00+00:00,243.8398,3.0,12.01,47.84626,-54.09684
2024-04-16 21:49:00+00:00,246.8547,3.0,12.01,47.84626,-54.09684
2024-04-16 21:59:00+00:00,255.5214,2.8,12.01,47.84626,-54.09684
2024-04-16 22:09:00+00:00,237.8781,2.8,12.01,47.84626,-54.09684
2024-04-16 22:19:01+00:00,216.9948,2.8,12.01,47.84626,-54.09684
2024-04-16 22:29:01+00:00,226.6731,2.8,12.01,47.84626,-54.09684
2024-04-16 22:39:01+00:00,234.953,2.7,12.01,47.84626,-54.09684
2024-04-16 22:49:01+00:00,231.0164,2.73,12.01,47.84626,-54.09684
2024-04-16 22:59:01+00:00,226.5431,2.74,12.01,47.84626,-54.09684
2024-04-16 23:09:01+00:00,233.3581,2.7,12.01,47.84626,-54.09684
2024-04-16 23:19:00+00:00,238.9431,2.7,12.01,47.84626,-54.09684
2024-04-16 23:29:00+00:00,233.6314,2.7,12.01,47.84626,-54.09684
2024-04-16 23:39:00+00:00,226.8214,2.7,12.01,47.84626,-54.09684
2024-04-16 23:49:00+00:00,232.6214,2.7,12.01,47.84626,-54.09684
2024-04-16 23:59:00+00:00,234.1148,2.6,12.01,47.84626,-54.09684
